Location: Unspecified
(41.2106°N, 0.0000°E)
Time: 00:41:46
(UTC+00:00)

SENTINEL-2C - Visible Passes

Search period start: 04 April 2026 00:00
Search period end: 14 April 2026 00:00
Orbit: 788 x 790 km, 98.6° (Epoch: 29 March)

Date Brightness Start Highest point End Pass type
(mag) Time Alt. Az. Time Alt. Az. Time Alt. Az.
4 Apr ? 21:29:44 31° NNE 21:29:44 31° NNE 21:32:40 10° N visible
4 Apr ? 23:10:25 14° NW 23:10:25 14° NW 23:11:19 10° NW visible
5 Apr ? 20:59:25 23° NE 20:59:25 23° NE 21:02:17 10° N visible
5 Apr ? 22:40:07 23° NW 22:40:07 23° NW 22:42:12 10° NNW visible
6 Apr ? 20:29:07 14° NE 20:29:07 14° NE 20:31:17 10° NNE visible
6 Apr ? 22:09:48 33° NNW 22:09:48 33° NNW 22:12:37 10° NNW visible
7 Apr ? 21:39:29 36° NNE 21:39:29 36° NNE 21:42:41 10° N visible
7 Apr ? 23:20:11 12° NW 23:20:11 12° NW 23:20:48 10° NW visible
8 Apr ? 21:09:11 27° NE 21:09:11 27° NE 21:12:26 10° N visible
8 Apr ? 22:49:52 21° NW 22:49:52 21° NW 22:51:57 10° NNW visible
9 Apr ? 20:38:52 17° NE 20:38:52 17° NE 20:41:43 10° NNE visible
9 Apr ? 22:19:34 33° NNW 22:19:34 33° NNW 22:22:29 10° NNW visible
10 Apr ? 21:49:15 41° N 21:49:15 41° N 21:52:39 10° N visible
10 Apr ? 23:29:57 10° WNW 23:29:57 10° WNW 23:30:04 10° WNW visible
11 Apr ? 21:18:56 33° NE 21:18:56 33° NE 21:22:32 10° N visible
11 Apr ? 22:59:37 19° NW 22:59:37 19° NW 23:01:38 10° NW visible
12 Apr ? 20:48:38 21° ENE 20:48:38 21° ENE 20:52:00 10° NNE visible
12 Apr ? 22:29:19 32° NW 22:29:19 32° NW 22:32:20 10° NNW visible
13 Apr ? 20:18:19 11° ENE 20:18:45 12° ENE 20:20:28 10° NE visible
13 Apr ? 21:59:00 46° N 21:59:00 46° N 22:02:37 10° NNW visible
